| time (UTC) | temp F | wind direction | speed MPH | gust MPH | rain 1hr in | rain 24hr in | rain mn in | humidity % | barometer mb |
| 20260507021017 | 62 | 225 | 8.0 | 13.0 | 0.00 | 0.00 | 0.00 | 82 | 1014.2 |
| 20260507020517 | 62 | 225 | 6.0 | 11.0 | 0.00 | 0.00 | 0.00 | 83 | 1014.2 |
| 20260507020018 | 63 | 225 | 8.0 | 14.0 | 0.00 | 0.00 | 0.00 | 83 | 1014.3 |
| 20260507015517 | 63 | 203 | 6.0 | 12.0 | 0.00 | 0.00 | 0.00 | 81 | 1014.1 |
| 20260507015017 | 62 | 203 | 6.0 | 11.0 | 0.00 | 0.00 | 0.00 | 82 | 1013.9 |
| 20260507014517 | 62 | 203 | 5.0 | 13.0 | 0.00 | 0.00 | 0.00 | 83 | 1014.1 |
| 20260507014017 | 62 | 180 | 4.0 | 7.0 | 0.00 | 0.00 | 0.00 | 83 | 1014.1 |
| 20260507013517 | 62 | 158 | 3.0 | 5.0 | 0.00 | 0.00 | 0.00 | 82 | 1014.2 |
| 20260507013017 | 63 | 180 | 3.0 | 4.0 | 0.00 | 0.00 | 0.00 | 82 | 1014.5 |
| 20260507012517 | 63 | 158 | 3.0 | 5.0 | 0.00 | 0.00 | 0.00 | 82 | 1014.5 |
| 20260507012037 | 63 | 158 | 4.0 | 7.0 | 0.00 | 0.00 | 0.00 | 82 | 1014.5 |
| 20260507011517 | 63 | 180 | 2.0 | 4.0 | 0.00 | 0.00 | 0.00 | 80 | 1014.4 |
| 20260507011017 | 63 | 158 | 2.0 | 5.0 | 0.00 | 0.00 | 0.00 | 79 | 1014.5 |
| 20260507010517 | 63 | 158 | 1.0 | 3.0 | 0.00 | 0.00 | 0.00 | 79 | 1014.6 |
| 20260507010017 | 63 | 180 | 2.0 | 4.0 | 0.00 | 0.00 | 0.00 | 79 | 1014.7 |
| 20260507005517 | 63 | 180 | 2.0 | 6.0 | 0.00 | 0.00 | 0.00 | 78 | 1014.6 |
| 20260507005017 | 63 | 180 | 2.0 | 4.0 | 0.00 | 0.00 | 0.00 | 78 | 1014.6 |
| 20260507004537 | 63 | 158 | 2.0 | 3.0 | 0.00 | 0.00 | 0.00 | 78 | 1014.6 |
| 20260507004017 | 63 | 180 | 1.0 | 3.0 | 0.00 | 0.00 | 0.00 | 78 | 1014.7 |
| 20260507003517 | 63 | 0.0 | 2.0 | 0.00 | 0.00 | 0.00 | 78 | 1014.7 | |
| 20260507003017 | 63 | 158 | 1.0 | 3.0 | 0.00 | 0.00 | 0.00 | 78 | 1014.7 |
| 20260507002517 | 63 | 203 | 1.0 | 2.0 | 0.00 | 0.00 | 0.00 | 78 | 1014.8 |
| 20260507002017 | 63 | 180 | 1.0 | 3.0 | 0.00 | 0.00 | 0.00 | 78 | 1014.8 |
| 20260507001517 | 63 | 180 | 2.0 | 6.0 | 0.00 | 0.00 | 0.00 | 78 | 1014.8 |
| 20260507001017 | 63 | 203 | 4.0 | 7.0 | 0.00 | 0.00 | 0.00 | 78 | 1014.8 |
| 20260507000517 | 63 | 135 | 4.0 | 10.0 | 0.00 | 0.00 | 0.00 | 78 | 1014.8 |
| 20260507000017 | 63 | 158 | 3.0 | 6.0 | 0.00 | 0.00 | 0.00 | 78 | 1014.7 |
| 20260506235517 | 63 | 158 | 4.0 | 7.0 | 0.00 | 0.00 | 0.00 | 78 | 1014.8 |
| 20260506235017 | 63 | 158 | 3.0 | 12.0 | 0.00 | 0.00 | 0.00 | 79 | 1014.7 |
| 20260506234517 | 63 | 158 | 4.0 | 11.0 | 0.00 | 0.00 | 0.00 | 79 | 1014.8 |
| 20260506234017 | 63 | 158 | 5.0 | 9.0 | 0.00 | 0.00 | 0.00 | 79 | 1014.9 |
| 20260506233517 | 63 | 158 | 5.0 | 11.0 | 0.00 | 0.00 | 0.00 | 80 | 1014.9 |
| 20260506233017 | 63 | 158 | 6.0 | 10.0 | 0.00 | 0.00 | 0.00 | 80 | 1014.9 |
| 20260506232517 | 63 | 180 | 5.0 | 11.0 | 0.00 | 0.00 | 0.00 | 80 | 1014.8 |
| 20260506232017 | 63 | 180 | 6.0 | 14.0 | 0.00 | 0.00 | 0.00 | 79 | 1014.8 |
| 20260506231517 | 63 | 158 | 6.0 | 15.0 | 0.00 | 0.00 | 0.00 | 79 | 1014.8 |
| 20260506231017 | 63 | 158 | 6.0 | 13.0 | 0.00 | 0.00 | 0.00 | 78 | 1014.7 |
| 20260506230517 | 63 | 158 | 9.0 | 16.0 | 0.00 | 0.00 | 0.00 | 78 | 1014.6 |
| 20260506230017 | 63 | 158 | 9.0 | 16.0 | 0.00 | 0.00 | 0.00 | 78 | 1014.6 |
| 20260506225517 | 63 | 158 | 7.0 | 17.0 | 0.00 | 0.00 | 0.00 | 78 | 1014.5 |
| 20260506225017 | 63 | 158 | 11.0 | 16.0 | 0.00 | 0.00 | 0.00 | 77 | 1014.4 |
| 20260506224517 | 63 | 180 | 7.0 | 13.0 | 0.00 | 0.00 | 0.00 | 77 | 1014.5 |
| 20260506224017 | 64 | 180 | 7.0 | 12.0 | 0.00 | 0.00 | 0.00 | 75 | 1014.4 |
| 20260506223517 | 64 | 203 | 10.0 | 14.0 | 0.00 | 0.00 | 0.00 | 74 | 1014.3 |
| 20260506223017 | 64 | 180 | 6.0 | 16.0 | 0.00 | 0.00 | 0.00 | 73 | 1014.3 |
| 20260506222517 | 64 | 203 | 9.0 | 16.0 | 0.00 | 0.00 | 0.00 | 70 | 1014.3 |
| 20260506222017 | 64 | 203 | 10.0 | 20.0 | 0.00 | 0.00 | 0.00 | 69 | 1014.4 |
| 20260506221517 | 64 | 225 | 9.0 | 18.0 | 0.00 | 0.00 | 0.00 | 69 | 1014.3 |
| 20260506221017 | 64 | 203 | 9.0 | 17.0 | 0.00 | 0.00 | 0.00 | 67 | 1014.3 |
| 20260506220516 | 64 | 203 | 8.0 | 15.0 | 0.00 | 0.00 | 0.00 | 67 | 1014.3 |
| 20260506220037 | 65 | 203 | 11.0 | 19.0 | 0.00 | 0.00 | 0.00 | 66 | 1014.1 |
| 20260506215516 | 64 | 225 | 10.0 | 21.0 | 0.00 | 0.00 | 0.00 | 66 | 1014.2 |
| 20260506215037 | 64 | 180 | 8.0 | 14.0 | 0.00 | 0.00 | 0.00 | 65 | 1014.4 |
| 20260506214516 | 64 | 203 | 7.0 | 14.0 | 0.00 | 0.00 | 0.00 | 65 | 1014.2 |
| 20260506214016 | 64 | 203 | 11.0 | 17.0 | 0.00 | 0.00 | 0.00 | 65 | 1013.9 |
| 20260506213516 | 64 | 225 | 11.0 | 21.0 | 0.00 | 0.00 | 0.00 | 68 | 1014.0 |
| 20260506213036 | 63 | 203 | 9.0 | 15.0 | 0.00 | 0.00 | 0.00 | 72 | 1014.0 |
| 20260506212516 | 63 | 225 | 8.0 | 12.0 | 0.00 | 0.00 | 0.00 | 75 | 1013.9 |
| 20260506212016 | 63 | 203 | 7.0 | 13.0 | 0.00 | 0.00 | 0.00 | 77 | 1013.7 |
| 20260506211516 | 63 | 225 | 7.0 | 13.0 | 0.00 | 0.00 | 0.00 | 78 | 1013.7 |
| 20260506211016 | 62 | 225 | 5.0 | 10.0 | 0.00 | 0.00 | 0.00 | 79 | 1013.7 |
| 20260506210516 | 62 | 203 | 6.0 | 11.0 | 0.00 | 0.00 | 0.00 | 80 | 1013.9 |
| 20260506210016 | 62 | 203 | 6.0 | 9.0 | 0.00 | 0.00 | 0.00 | 82 | 1014.1 |
| 20260506205536 | 62 | 203 | 4.0 | 7.0 | 0.00 | 0.00 | 0.00 | 83 | 1014.2 |
| 20260506205016 | 63 | 203 | 4.0 | 11.0 | 0.00 | 0.00 | 0.00 | 84 | 1014.4 |
| 20260506204516 | 63 | 158 | 3.0 | 5.0 | 0.00 | 0.00 | 0.00 | 84 | 1014.5 |
| 20260506204016 | 63 | 180 | 3.0 | 7.0 | 0.00 | 0.00 | 0.00 | 84 | 1014.6 |
| 20260506203516 | 62 | 158 | 4.0 | 7.0 | 0.00 | 0.00 | 0.00 | 85 | 1014.7 |
| 20260506203036 | 63 | 158 | 2.0 | 5.0 | 0.00 | 0.00 | 0.00 | 84 | 1014.9 |
| 20260506202516 | 63 | 203 | 1.0 | 3.0 | 0.00 | 0.00 | 0.00 | 84 | 1014.9 |
| 20260506202016 | 63 | 203 | 2.0 | 5.0 | 0.00 | 0.00 | 0.00 | 84 | 1015.2 |
| 20260506201516 | 63 | 180 | 3.0 | 5.0 | 0.00 | 0.00 | 0.00 | 84 | 1015.2 |
| 20260506201016 | 63 | 158 | 4.0 | 6.0 | 0.00 | 0.00 | 0.00 | 84 | 1015.3 |
| 20260506200536 | 63 | 180 | 5.0 | 9.0 | 0.00 | 0.00 | 0.00 | 84 | 1015.4 |
| 20260506200036 | 63 | 180 | 4.0 | 10.0 | 0.00 | 0.00 | 0.00 | 84 | 1015.5 |
| 20260506195516 | 63 | 158 | 5.0 | 10.0 | 0.00 | 0.00 | 0.00 | 84 | 1015.6 |
| 20260506195016 | 63 | 158 | 6.0 | 10.0 | 0.00 | 0.00 | 0.00 | 85 | 1015.6 |
| 20260506194516 | 63 | 158 | 6.0 | 11.0 | 0.00 | 0.00 | 0.00 | 85 | 1015.5 |
| 20260506194036 | 63 | 158 | 6.0 | 10.0 | 0.00 | 0.00 | 0.00 | 84 | 1015.5 |
| 20260506193516 | 63 | 158 | 5.0 | 9.0 | 0.00 | 0.00 | 0.00 | 84 | 1015.5 |
| 20260506193016 | 63 | 158 | 8.0 | 13.0 | 0.00 | 0.00 | 0.00 | 85 | 1015.5 |
| 20260506192516 | 63 | 158 | 5.0 | 10.0 | 0.00 | 0.00 | 0.00 | 85 | 1015.5 |
| 20260506192036 | 63 | 135 | 6.0 | 12.0 | 0.00 | 0.00 | 0.00 | 84 | 1015.5 |
| 20260506191516 | 63 | 158 | 4.0 | 10.0 | 0.00 | 0.00 | 0.00 | 84 | 1015.6 |
| 20260506191016 | 63 | 135 | 6.0 | 16.0 | 0.00 | 0.00 | 0.00 | 84 | 1015.6 |
| 20260506190516 | 63 | 158 | 6.0 | 13.0 | 0.00 | 0.00 | 0.00 | 84 | 1015.6 |
| 20260506190016 | 63 | 158 | 5.0 | 10.0 | 0.00 | 0.00 | 0.00 | 84 | 1015.6 |
| 20260506185536 | 63 | 158 | 8.0 | 16.0 | 0.00 | 0.00 | 0.00 | 84 | 1015.6 |
| 20260506185016 | 63 | 158 | 7.0 | 13.0 | 0.00 | 0.00 | 0.00 | 84 | 1015.5 |
| 20260506184516 | 63 | 158 | 7.0 | 14.0 | 0.00 | 0.00 | 0.00 | 84 | 1015.3 |
| 20260506184016 | 63 | 158 | 5.0 | 10.0 | 0.00 | 0.00 | 0.00 | 84 | 1015.4 |
| 20260506183516 | 63 | 180 | 7.0 | 13.0 | 0.00 | 0.00 | 0.00 | 83 | 1015.2 |
| 20260506183016 | 63 | 158 | 5.0 | 11.0 | 0.00 | 0.00 | 0.00 | 83 | 1015.0 |
| 20260506182516 | 63 | 158 | 5.0 | 10.0 | 0.00 | 0.00 | 0.00 | 83 | 1015.0 |
| 20260506182036 | 63 | 135 | 6.0 | 11.0 | 0.00 | 0.00 | 0.00 | 83 | 1015.2 |
| 20260506181518 | 63 | 180 | 6.0 | 13.0 | 0.00 | 0.00 | 0.00 | 83 | 1015.0 |
| 20260506181018 | 63 | 158 | 7.0 | 13.0 | 0.00 | 0.00 | 0.00 | 84 | 1015.0 |
| 20260506180538 | 63 | 158 | 6.0 | 11.0 | 0.00 | 0.00 | 0.00 | 83 | 1014.9 |
| 20260506180018 | 63 | 180 | 5.0 | 7.0 | 0.00 | 0.00 | 0.00 | 84 | 1014.8 |
| 20260506175518 | 63 | 180 | 6.0 | 11.0 | 0.00 | 0.00 | 0.00 | 83 | 1014.9 |
| 20260506175038 | 63 | 180 | 7.0 | 15.0 | 0.00 | 0.00 | 0.00 | 83 | 1014.8 |
| 20260506174518 | 63 | 158 | 7.0 | 13.0 | 0.00 | 0.00 | 0.00 | 83 | 1014.6 |
| 20260506174018 | 63 | 158 | 4.0 | 9.0 | 0.00 | 0.00 | 0.00 | 83 | 1014.6 |
| 20260506173518 | 63 | 180 | 4.0 | 6.0 | 0.00 | 0.00 | 0.00 | 83 | 1014.6 |
| 20260506173018 | 64 | 158 | 7.0 | 11.0 | 0.00 | 0.00 | 0.00 | 83 | 1014.5 |
| 20260506172518 | 64 | 158 | 4.0 | 7.0 | 0.00 | 0.00 | 0.00 | 83 | 1014.5 |
| 20260506172018 | 64 | 203 | 4.0 | 10.0 | 0.00 | 0.00 | 0.00 | 83 | 1014.5 |
| 20260506171517 | 64 | 158 | 4.0 | 7.0 | 0.00 | 0.00 | 0.00 | 83 | 1014.6 |
| 20260506171038 | 64 | 158 | 6.0 | 11.0 | 0.00 | 0.00 | 0.00 | 83 | 1014.7 |
| 20260506170518 | 64 | 180 | 6.0 | 11.0 | 0.00 | 0.00 | 0.00 | 83 | 1014.8 |
| 20260506170018 | 64 | 180 | 7.0 | 12.0 | 0.00 | 0.00 | 0.00 | 83 | 1014.9 |
| 20260506165518 | 64 | 180 | 7.0 | 12.0 | 0.00 | 0.00 | 0.00 | 83 | 1014.8 |
| 20260506165018 | 64 | 158 | 8.0 | 14.0 | 0.00 | 0.00 | 0.00 | 83 | 1015.0 |
| 20260506164518 | 64 | 158 | 7.0 | 13.0 | 0.00 | 0.00 | 0.00 | 83 | 1014.9 |
| 20260506164058 | 64 | 158 | 8.0 | 14.0 | 0.00 | 0.00 | 0.00 | 83 | 1014.9 |
| 20260506163517 | 64 | 135 | 6.0 | 11.0 | 0.00 | 0.00 | 0.00 | 83 | 1015.0 |
| 20260506163017 | 64 | 135 | 6.0 | 13.0 | 0.00 | 0.00 | 0.00 | 83 | 1015.0 |
| 20260506162517 | 64 | 158 | 6.0 | 12.0 | 0.00 | 0.00 | 0.00 | 83 | 1015.1 |
| 20260506162018 | 64 | 135 | 8.0 | 13.0 | 0.00 | 0.00 | 0.00 | 82 | 1015.0 |
| 20260506161517 | 64 | 135 | 8.0 | 12.0 | 0.00 | 0.00 | 0.00 | 82 | 1015.1 |
| 20260506161018 | 64 | 135 | 7.0 | 12.0 | 0.00 | 0.00 | 0.00 | 82 | 1015.3 |
| 20260506160517 | 64 | 135 | 6.0 | 13.0 | 0.00 | 0.00 | 0.00 | 82 | 1015.4 |
| 20260506160017 | 64 | 158 | 8.0 | 15.0 | 0.00 | 0.00 | 0.00 | 82 | 1015.4 |
| 20260506155518 | 64 | 135 | 7.0 | 14.0 | 0.00 | 0.00 | 0.00 | 81 | 1015.4 |
| 20260506155038 | 64 | 135 | 6.0 | 11.0 | 0.00 | 0.00 | 0.00 | 81 | 1015.4 |
| 20260506154517 | 65 | 135 | 6.0 | 15.0 | 0.00 | 0.00 | 0.00 | 81 | 1015.4 |
| 20260506154018 | 64 | 135 | 8.0 | 13.0 | 0.00 | 0.00 | 0.00 | 81 | 1015.5 |
| 20260506153517 | 64 | 135 | 9.0 | 15.0 | 0.00 | 0.00 | 0.00 | 81 | 1015.5 |
| 20260506153018 | 64 | 158 | 9.0 | 17.0 | 0.00 | 0.00 | 0.00 | 81 | 1015.5 |
| 20260506152517 | 65 | 135 | 6.0 | 14.0 | 0.00 | 0.00 | 0.00 | 81 | 1015.5 |
| 20260506152018 | 65 | 135 | 7.0 | 11.0 | 0.00 | 0.00 | 0.00 | 81 | 1015.5 |
| 20260506151517 | 65 | 135 | 10.0 | 16.0 | 0.00 | 0.00 | 0.00 | 80 | 1015.5 |
| 20260506151017 | 65 | 135 | 8.0 | 14.0 | 0.00 | 0.00 | 0.00 | 80 | 1015.6 |
| 20260506150537 | 65 | 135 | 11.0 | 21.0 | 0.00 | 0.00 | 0.00 | 80 | 1015.4 |
| 20260506150017 | 66 | 135 | 10.0 | 17.0 | 0.00 | 0.00 | 0.00 | 79 | 1015.3 |
| 20260506145517 | 65 | 180 | 9.0 | 17.0 | 0.00 | 0.00 | 0.00 | 78 | 1015.3 |
| 20260506145017 | 66 | 158 | 10.0 | 18.0 | 0.00 | 0.00 | 0.00 | 78 | 1015.5 |
| 20260506144517 | 65 | 135 | 11.0 | 19.0 | 0.00 | 0.00 | 0.00 | 78 | 1015.4 |
| 20260506144017 | 66 | 158 | 10.0 | 15.0 | 0.00 | 0.00 | 0.00 | 79 | 1015.4 |
| 20260506143517 | 65 | 135 | 9.0 | 17.0 | 0.00 | 0.00 | 0.00 | 80 | 1015.2 |
| 20260506143017 | 65 | 158 | 10.0 | 17.0 | 0.00 | 0.00 | 0.00 | 80 | 1015.2 |
| 20260506142518 | 65 | 158 | 10.0 | 18.0 | 0.00 | 0.00 | 0.00 | 79 | 1015.0 |
| 20260506142017 | 65 | 158 | 9.0 | 17.0 | 0.00 | 0.00 | 0.00 | 79 | 1015.0 |
| 20260506141517 | 66 | 158 | 9.0 | 18.0 | 0.00 | 0.00 | 0.00 | 78 | 1015.0 |
| 20260506141017 | 65 | 135 | 9.0 | 17.0 | 0.00 | 0.00 | 0.00 | 79 | 1015.0 |
| 20260506140517 | 65 | 135 | 12.0 | 21.0 | 0.00 | 0.00 | 0.00 | 79 | 1015.2 |
| 20260506140017 | 65 | 135 | 12.0 | 21.0 | 0.00 | 0.00 | 0.00 | 79 | 1015.2 |
| 20260506135517 | 66 | 135 | 10.0 | 22.0 | 0.00 | 0.00 | 0.00 | 78 | 1015.3 |
| 20260506135037 | 66 | 158 | 10.0 | 17.0 | 0.00 | 0.00 | 0.00 | 79 | 1015.2 |
| 20260506134518 | 65 | 135 | 11.0 | 19.0 | 0.00 | 0.00 | 0.00 | 79 | 1015.3 |
| 20260506134017 | 66 | 135 | 11.0 | 17.0 | 0.00 | 0.00 | 0.00 | 78 | 1015.2 |
| 20260506133518 | 66 | 135 | 11.0 | 18.0 | 0.00 | 0.00 | 0.00 | 78 | 1015.3 |
| 20260506133017 | 66 | 135 | 11.0 | 18.0 | 0.00 | 0.00 | 0.00 | 78 | 1015.3 |
| 20260506132557 | 66 | 158 | 10.0 | 19.0 | 0.00 | 0.00 | 0.00 | 78 | 1015.4 |
| 20260506132037 | 66 | 135 | 11.0 | 20.0 | 0.00 | 0.00 | 0.00 | 78 | 1015.4 |
| 20260506131517 | 66 | 135 | 12.0 | 19.0 | 0.00 | 0.00 | 0.00 | 78 | 1015.4 |
| 20260506131017 | 66 | 135 | 11.0 | 23.0 | 0.00 | 0.00 | 0.00 | 78 | 1015.5 |
| 20260506130537 | 67 | 158 | 10.0 | 21.0 | 0.00 | 0.00 | 0.00 | 77 | 1015.5 |
| 20260506130017 | 66 | 158 | 12.0 | 20.0 | 0.00 | 0.00 | 0.00 | 79 | 1015.6 |
| 20260506125517 | 65 | 135 | 11.0 | 18.0 | 0.00 | 0.00 | 0.00 | 78 | 1015.6 |
| 20260506125017 | 66 | 135 | 12.0 | 22.0 | 0.00 | 0.00 | 0.00 | 78 | 1015.6 |
| 20260506124537 | 66 | 135 | 12.0 | 21.0 | 0.00 | 0.00 | 0.00 | 78 | 1015.6 |
| 20260506124017 | 66 | 158 | 10.0 | 21.0 | 0.00 | 0.00 | 0.00 | 78 | 1015.8 |
| 20260506123517 | 66 | 135 | 13.0 | 24.0 | 0.00 | 0.00 | 0.00 | 79 | 1015.7 |
| 20260506123017 | 66 | 135 | 12.0 | 24.0 | 0.00 | 0.00 | 0.00 | 78 | 1015.7 |
| 20260506122537 | 66 | 158 | 11.0 | 22.0 | 0.00 | 0.00 | 0.00 | 77 | 1015.9 |
| 20260506122017 | 66 | 135 | 9.0 | 19.0 | 0.00 | 0.00 | 0.00 | 78 | 1015.9 |
| 20260506121517 | 66 | 135 | 10.0 | 19.0 | 0.00 | 0.00 | 0.00 | 78 | 1015.7 |
| 20260506121017 | 66 | 135 | 10.0 | 16.0 | 0.00 | 0.00 | 0.00 | 78 | 1015.8 |
| 20260506120517 | 66 | 135 | 11.0 | 19.0 | 0.00 | 0.00 | 0.00 | 78 | 1015.8 |
| 20260506120017 | 66 | 135 | 10.0 | 18.0 | 0.00 | 0.00 | 0.00 | 78 | 1015.7 |
| 20260506115537 | 66 | 158 | 8.0 | 16.0 | 0.00 | 0.00 | 0.00 | 78 | 1015.6 |
| 20260506115017 | 66 | 158 | 11.0 | 19.0 | 0.00 | 0.00 | 0.00 | 78 | 1015.8 |
| 20260506114517 | 66 | 158 | 12.0 | 20.0 | 0.00 | 0.00 | 0.00 | 77 | 1015.9 |
| 20260506114037 | 66 | 135 | 11.0 | 18.0 | 0.00 | 0.00 | 0.00 | 78 | 1016.0 |
| 20260506113517 | 66 | 135 | 11.0 | 19.0 | 0.00 | 0.00 | 0.00 | 77 | 1016.0 |
| 20260506113017 | 66 | 135 | 11.0 | 19.0 | 0.00 | 0.00 | 0.00 | 77 | 1016.0 |
| 20260506112517 | 66 | 135 | 12.0 | 20.0 | 0.00 | 0.00 | 0.00 | 77 | 1016.2 |
| 20260506112017 | 66 | 135 | 11.0 | 18.0 | 0.00 | 0.00 | 0.00 | 78 | 1016.0 |
| 20260506111517 | 66 | 135 | 11.0 | 17.0 | 0.00 | 0.00 | 0.00 | 79 | 1016.1 |
| 20260506111017 | 66 | 135 | 11.0 | 18.0 | 0.00 | 0.00 | 0.00 | 79 | 1016.1 |
| 20260506110517 | 66 | 158 | 12.0 | 18.0 | 0.00 | 0.00 | 0.00 | 79 | 1016.1 |
| 20260506110017 | 66 | 158 | 11.0 | 19.0 | 0.00 | 0.00 | 0.00 | 79 | 1016.3 |
| 20260506105517 | 66 | 135 | 11.0 | 18.0 | 0.00 | 0.00 | 0.00 | 80 | 1016.2 |
| 20260506105017 | 66 | 135 | 12.0 | 20.0 | 0.00 | 0.00 | 0.00 | 81 | 1016.1 |
| 20260506104517 | 66 | 113 | 12.0 | 18.0 | 0.00 | 0.00 | 0.00 | 81 | 1016.1 |
| 20260506104017 | 66 | 135 | 11.0 | 21.0 | 0.00 | 0.00 | 0.00 | 81 | 1016.2 |
| 20260506103537 | 66 | 135 | 11.0 | 17.0 | 0.00 | 0.00 | 0.00 | 81 | 1016.2 |
| 20260506103017 | 65 | 135 | 11.0 | 19.0 | 0.00 | 0.00 | 0.00 | 83 | 1016.4 |
| 20260506102517 | 65 | 135 | 11.0 | 21.0 | 0.00 | 0.00 | 0.00 | 82 | 1016.4 |
| 20260506102017 | 65 | 135 | 12.0 | 18.0 | 0.00 | 0.00 | 0.00 | 81 | 1016.5 |
| 20260506101517 | 65 | 135 | 10.0 | 19.0 | 0.00 | 0.00 | 0.00 | 81 | 1016.4 |
| 20260506101016 | 65 | 158 | 8.0 | 17.0 | 0.00 | 0.00 | 0.00 | 81 | 1016.4 |
| 20260506100536 | 65 | 135 | 10.0 | 17.0 | 0.00 | 0.00 | 0.00 | 80 | 1016.5 |
| 20260506100036 | 65 | 135 | 10.0 | 15.0 | 0.00 | 0.00 | 0.00 | 80 | 1016.5 |
| 20260506095516 | 65 | 135 | 11.0 | 17.0 | 0.00 | 0.00 | 0.00 | 79 | 1016.4 |
| 20260506095017 | 66 | 135 | 10.0 | 17.0 | 0.00 | 0.00 | 0.00 | 79 | 1016.4 |
| 20260506094516 | 66 | 158 | 8.0 | 17.0 | 0.00 | 0.00 | 0.00 | 79 | 1016.4 |
| 20260506094016 | 65 | 135 | 9.0 | 16.0 | 0.00 | 0.00 | 0.00 | 79 | 1016.3 |
| 20260506093557 | 65 | 135 | 7.0 | 13.0 | 0.00 | 0.00 | 0.00 | 81 | 1016.3 |
| 20260506093017 | 65 | 135 | 7.0 | 14.0 | 0.00 | 0.00 | 0.00 | 81 | 1016.4 |
| 20260506092517 | 64 | 158 | 6.0 | 10.0 | 0.00 | 0.00 | 0.00 | 82 | 1016.3 |
| 20260506092016 | 64 | 158 | 7.0 | 11.0 | 0.00 | 0.00 | 0.00 | 82 | 1016.4 |
| 20260506091517 | 64 | 158 | 8.0 | 13.0 | 0.00 | 0.00 | 0.00 | 81 | 1016.4 |
| 20260506091016 | 64 | 135 | 8.0 | 14.0 | 0.00 | 0.00 | 0.00 | 80 | 1016.1 |
| 20260506090517 | 65 | 113 | 7.0 | 13.0 | 0.00 | 0.00 | 0.00 | 79 | 1015.8 |
| 20260506090016 | 65 | 135 | 9.0 | 14.0 | 0.00 | 0.00 | 0.00 | 78 | 1016.1 |
| 20260506085557 | 65 | 135 | 8.0 | 14.0 | 0.00 | 0.00 | 0.00 | 78 | 1016.2 |
| 20260506085017 | 66 | 135 | 8.0 | 14.0 | 0.00 | 0.00 | 0.00 | 77 | 1016.1 |
| 20260506084516 | 66 | 135 | 6.0 | 12.0 | 0.00 | 0.00 | 0.00 | 78 | 1016.3 |
| 20260506084016 | 65 | 158 | 8.0 | 14.0 | 0.00 | 0.00 | 0.00 | 78 | 1016.4 |
| 20260506083537 | 65 | 135 | 8.0 | 16.0 | 0.00 | 0.00 | 0.00 | 80 | 1016.3 |
| 20260506083017 | 65 | 135 | 9.0 | 13.0 | 0.00 | 0.00 | 0.00 | 80 | 1016.3 |
| 20260506082517 | 65 | 113 | 9.0 | 14.0 | 0.00 | 0.00 | 0.00 | 81 | 1016.3 |
| 20260506082016 | 65 | 135 | 8.0 | 14.0 | 0.00 | 0.00 | 0.00 | 81 | 1016.3 |
| 20260506081516 | 65 | 135 | 8.0 | 12.0 | 0.00 | 0.00 | 0.00 | 80 | 1016.4 |
| 20260506081016 | 65 | 135 | 5.0 | 11.0 | 0.00 | 0.00 | 0.00 | 80 | 1016.4 |
| 20260506080516 | 65 | 135 | 7.0 | 12.0 | 0.00 | 0.00 | 0.00 | 79 | 1016.4 |
| 20260506073516 | 64 | 135 | 8.0 | 14.0 | 0.00 | 0.00 | 0.00 | 82 | 1016.4 |
| 20260506073016 | 64 | 158 | 9.0 | 14.0 | 0.00 | 0.00 | 0.00 | 82 | 1016.4 |
| 20260506072516 | 64 | 135 | 8.0 | 16.0 | 0.00 | 0.00 | 0.00 | 82 | 1016.4 |
| 20260506072016 | 64 | 135 | 8.0 | 15.0 | 0.00 | 0.00 | 0.00 | 81 | 1016.6 |
| 20260506071516 | 64 | 135 | 7.0 | 13.0 | 0.00 | 0.00 | 0.00 | 82 | 1016.5 |
| 20260506071016 | 64 | 135 | 8.0 | 15.0 | 0.00 | 0.00 | 0.00 | 81 | 1016.5 |
| 20260506070537 | 65 | 158 | 7.0 | 14.0 | 0.00 | 0.00 | 0.00 | 80 | 1016.5 |
| 20260506062516 | 64 | 135 | 5.0 | 9.0 | 0.00 | 0.00 | 0.00 | 81 | 1016.2 |
| 20260506062016 | 64 | 135 | 6.0 | 11.0 | 0.00 | 0.00 | 0.00 | 81 | 1016.3 |
| 20260506061516 | 64 | 135 | 6.0 | 10.0 | 0.00 | 0.00 | 0.00 | 81 | 1016.2 |
| 20260506061016 | 64 | 158 | 5.0 | 11.0 | 0.00 | 0.00 | 0.00 | 80 | 1016.0 |
| 20260506060516 | 64 | 158 | 5.0 | 13.0 | 0.00 | 0.00 | 0.00 | 80 | 1015.9 |
| 20260506051016 | 62 | 180 | 5.0 | 9.0 | 0.00 | 0.00 | 0.00 | 82 | 1015.7 |
| 20260506050536 | 62 | 158 | 5.0 | 10.0 | 0.00 | 0.00 | 0.00 | 82 | 1015.6 |
| 20260506045016 | 62 | 158 | 4.0 | 8.0 | 0.00 | 0.00 | 0.00 | 81 | 1015.6 |
| 20260506044516 | 62 | 180 | 5.0 | 9.0 | 0.00 | 0.00 | 0.00 | 81 | 1015.6 |
| 20260506044018 | 62 | 158 | 5.0 | 9.0 | 0.00 | 0.00 | 0.00 | 82 | 1015.5 |
| 20260506043518 | 62 | 180 | 4.0 | 11.0 | 0.00 | 0.00 | 0.00 | 81 | 1015.5 |
| 20260506043018 | 62 | 180 | 6.0 | 13.0 | 0.00 | 0.00 | 0.00 | 81 | 1015.5 |
| 20260506042538 | 62 | 135 | 5.0 | 9.0 | 0.00 | 0.00 | 0.00 | 81 | 1015.5 |
| 20260506042038 | 62 | 135 | 3.0 | 7.0 | 0.00 | 0.00 | 0.00 | 81 | 1015.4 |
| 20260506041518 | 62 | 158 | 4.0 | 6.0 | 0.00 | 0.00 | 0.00 | 81 | 1015.4 |
| 20260506041018 | 62 | 158 | 3.0 | 9.0 | 0.00 | 0.00 | 0.00 | 81 | 1015.4 |
| 20260506040518 | 62 | 158 | 5.0 | 10.0 | 0.00 | 0.00 | 0.00 | 81 | 1015.4 |
| 20260506040018 | 62 | 180 | 5.0 | 11.0 | 0.00 | 0.00 | 0.00 | 80 | 1015.4 |
| 20260506035518 | 62 | 180 | 5.0 | 10.0 | 0.00 | 0.00 | 0.00 | 80 | 1015.4 |
| 20260506035018 | 62 | 203 | 4.0 | 9.0 | 0.00 | 0.00 | 0.00 | 80 | 1015.4 |
| 20260506034518 | 62 | 180 | 5.0 | 11.0 | 0.00 | 0.00 | 0.00 | 79 | 1015.3 |
| 20260506034038 | 62 | 180 | 4.0 | 9.0 | 0.00 | 0.00 | 0.00 | 79 | 1015.3 |
| 20260506033518 | 62 | 180 | 5.0 | 11.0 | 0.00 | 0.00 | 0.00 | 79 | 1015.3 |
| 20260506033018 | 62 | 158 | 5.0 | 11.0 | 0.00 | 0.00 | 0.00 | 80 | 1015.3 |
| 20260506032518 | 62 | 158 | 3.0 | 6.0 | 0.00 | 0.00 | 0.00 | 80 | 1015.1 |
| 20260506032018 | 62 | 180 | 3.0 | 6.0 | 0.00 | 0.00 | 0.00 | 80 | 1015.1 |
| 20260506031517 | 62 | 158 | 5.0 | 10.0 | 0.00 | 0.00 | 0.00 | 80 | 1015.0 |
| 20260506031017 | 62 | 158 | 3.0 | 6.0 | 0.00 | 0.00 | 0.00 | 80 | 1015.1 |
| 20260506030518 | 62 | 158 | 5.0 | 12.0 | 0.00 | 0.00 | 0.00 | 80 | 1015.1 |
| 20260506030018 | 62 | 180 | 3.0 | 5.0 | 0.00 | 0.00 | 0.00 | 80 | 1015.2 |
| 20260506025518 | 62 | 180 | 4.0 | 9.0 | 0.00 | 0.00 | 0.00 | 80 | 1015.2 |
| 20260506025017 | 62 | 180 | 3.0 | 6.0 | 0.00 | 0.00 | 0.00 | 80 | 1015.2 |
| 20260506024517 | 62 | 180 | 4.0 | 6.0 | 0.00 | 0.00 | 0.00 | 80 | 1015.2 |
| 20260506024017 | 62 | 180 | 3.0 | 6.0 | 0.00 | 0.00 | 0.00 | 79 | 1015.2 |
| 20260506023518 | 62 | 180 | 2.0 | 5.0 | 0.00 | 0.00 | 0.00 | 79 | 1015.2 |
| 20260506023017 | 62 | 158 | 4.0 | 7.0 | 0.00 | 0.00 | 0.00 | 79 | 1015.2 |
| 20260506022538 | 62 | 180 | 4.0 | 12.0 | 0.00 | 0.00 | 0.00 | 79 | 1015.2 |
| 20260506022018 | 62 | 180 | 3.0 | 5.0 | 0.00 | 0.00 | 0.00 | 79 | 1015.2 |
| 20260506021518 | 62 | 158 | 4.0 | 7.0 | 0.00 | 0.00 | 0.00 | 79 | 1015.3 |